This demonstration page uses our WeatherBlox Daily Observations layout. Learn more.

Left ArrowRight Arrow

39.08367, -84.50855

Hourly Observations for June 23, 2020

Temp ( °F °C ) Dew Point ( °F °C ) Humidity (%) Winds ( mph kmh ) Pressure ( in mb ) Visibility ( mi km ) Precip ( " mm )
12:07 am 00:07 Cloudy with Light Rain 74 23.3 68 20 82 82 S 14 22 29.8 1009 5 8.0467 0.03 0.762
12:29 am 00:29 Mostly Cloudy with Nearby Thunderstorms 73 22.8 69 20.6 87 87 SSW 3 6 29.81 1010 10 16.0934 0.03 0.762
12:44 am 00:44 Mostly Cloudy 73 22.8 69 20.6 87 87 S 5 7 29.8 1009 10 16.0934 0.03 0.762
12:53 am 00:53 Mostly Cloudy 73 22.8 69 20.6 87 87 S 3 6 29.8 1009 10 16.0934 0.03 0.762
1:53 am 01:53 Cloudy with Rain 72 22.2 68 20 87 87 SSW 5 7 29.78 1009 5 8.0467 0.08 2.032
2:15 am 02:15 Cloudy with Heavy Rain 70 21.1 68 20 93 93 S 7 11 29.78 1008 2.5 4.02335 0.09 2.286
2:22 am 02:22 Cloudy with Rain 70 21.1 68 20 93 93 S 7 11 29.78 1008 5 8.0467 0.1 2.54
2:37 am 02:37 Cloudy with Heavy Rain 70 21.1 68 20 93 93 S 10 17 29.78 1008 1.75 2.816345 0.25 6.35
2:53 am 02:53 Cloudy with Heavy Rain 70 21.1 68 20 93 93 S 7 11 29.76 1008 2 3.21868 0.39 9.906
3:03 am 03:03 Cloudy with Rain 70 21.1 68 20 93 93 S 3 6 29.75 1007 4 6.43736 0.04 1.016
3:53 am 03:53 Cloudy with Light Rain 70 21.1 68 20 93 93 SSW 7 11 29.72 1006 10 16.0934 0.05 1.27
4:53 am 04:53 Cloudy 71 21.7 68 20 90 90 SSW 8 13 29.7 1006 10 16.0934 0.001 0.001
5:53 am 05:53 Cloudy with Light Rain 71 21.7 69 20.6 94 94 SSW 9 15 29.7 1006 10 16.0934 0.001 0.001
6:53 am 06:53 Cloudy with Light Rain 72 22.2 69 20.6 91 91 SSW 12 19 29.7 1006 6 9.65604 0.03 0.762
7:53 am 07:53 Cloudy with Light Rain 72 22.2 69 20.6 91 91 S 13 20 29.69 1005 6 9.65604 0.02 0.508
8:53 am 08:53 Cloudy with Light Rain 71 21.7 69 20.6 94 94 SW 9 15 29.7 1006 6 9.65604 0.09 2.286
9:01 am 09:01 Cloudy with Light Rain 72 22.2 69 20.6 91 91 SW 10 17 29.69 1006 6 9.65604 0.001 0.001
9:53 am 09:53 Cloudy with Light Rain 72 22.2 69 20.6 91 91 WSW 9 15 29.72 1007 7 11.26538 0.01 0.254
10:53 am 10:53 Mostly Cloudy with Light Rain 71 21.7 68 20 90 90 SW 8 13 29.73 1007 6 9.65604 0.001 0.001
11:53 am 11:53 Mostly Cloudy 78 25.6 66 18.9 67 67 WNW 14 22 29.73 1007 10 16.0934 0.001 0.001
12:53 pm 12:53 Cloudy 75 23.9 64 17.8 69 69 WSW 13 20 29.74 1007 10 16.0934 0 0
1:53 pm 13:53 Mostly Cloudy 78 25.6 65 18.3 64 64 WSW 8 13 29.73 1007 10 16.0934 0 0
2:53 pm 14:53 Mostly Cloudy 79 26.1 63 17.2 58 58 W 9 15 29.74 1007 10 16.0934 0 0
3:53 pm 15:53 Partly Cloudy 80 26.7 59 15 49 49 WNW 16 26 29.74 1007 10 16.0934 0 0
5:53 pm 17:53 Partly Cloudy 78 25.6 57 13.9 48 48 WNW 10 17 29.76 1008 10 16.0934 0 0
6:53 pm 18:53 Partly Cloudy 78 25.6 56 13.3 47 47 WNW 7 11 29.77 1008 10 16.0934 0 0
7:53 pm 19:53 Partly Cloudy 77 25 55 12.8 47 47 WNW 8 13 29.79 1009 10 16.0934 0 0
8:53 pm 20:53 Partly Cloudy 74 23.3 53 11.7 48 48 NW 7 11 29.8 1009 10 16.0934 0 0
9:53 pm 21:53 Clear 68 20 55 12.8 63 63 Calm 29.81 1010 10 16.0934 0 0
10:53 pm 22:53 Clear 63 17.2 58 14.4 84 84 SSW 3 6 29.83 1010 10 16.0934 0 0
11:53 pm 23:53 Clear 61 16.1 57 13.9 87 87 Calm 29.83 1010 10 16.0934 0 0

Powered by AerisWeather